Vertical_Velocity
2 -5 -3 -5 -1 -1 -2 -2 -1 1 -1 -5 -1 -0 -2 -1 4 2 1 -0 -1 -4 -3 2 1 2 -0 -1 4 -0 -0 1 2 -1 1 -1 0 7 -2 1 1 4 3 2
-6 -3 -6 -1 -0 -2 -1 -1 -0 -1 -0 -5 0 -1 -2 1 -3 -6 -6 0 -2 3 -0 1 1 2 0 1 1 3 2 3 -1 3 -1 2 2 -2 3 -1 2 3 -1 2
-4 -9 -0 -3 2 -1 0 -1 0 -5 2 -1 -3 -4 -1 -4 1 4 5 2 7 -1 -5 -1 -2 -2 2 -3 -6 5 1 2 2 0 -2 -2 -1 -4 -5 -3 -6 -6 2 2
-3 -2 -3 1 -1 -4 -0 -2 -2 -0 -4 -2 -3 -6 -2 -1 -1 1 -0 -2 -1 -2 5 4 -1 -4 -6 -0 1 1 4 1 1 3 0 -0 -0 -3 -2 -0 6 3 -1 -1
-12 -0 1 0 -6 -2 -5 -1 -2 -1 -1 -5 1 -5 -11 1 -0 -3 -2 -5 -2 -2 -2 -4 -8 -2 -4 5 -0 -0 0 3 -2 -1 3 3 1 4 9 3 2 1 2 -1
-4 0 -1 -0 2 -2 -0 -5 -4 -2 -2 -5 -1 -5 -7 -2 -12 -2 -0 -2 -0 -5 -1 1 8 5 -1 4 1 -1 1 1 -0 -2 -2 -2 2 -1 -3 0 -2 1 0 -1
-4 -1 0 -8 -8 -2 -4 -5 -3 -3 -3 -5 -0 -2 -13 -2 -1 -6 -5 -6 -0 -4 -0 1 -3 -3 -2 -1 -1 1 -1 -2 -0 -1 1 1 -1 -2 -3 -3 -1 2 -0 2
-3 -14 -2 0 -8 -11 -2 -6 -7 -5 -2 -2 -1 -3 -17 -4 -3 0 3 4 7 -3 -0 -5 2 -2 -0 2 4 2 -5 0 -1 -1 -1 2 5 4 2 2 1 -4 -5 -3
-3 -5 -1 -1 -0 -10 -1 -2 -6 -7 -1 -4 -3 -7 -10 0 0 1 -2 -0 -1 -5 0 -5 1 -1 0 -1 -3 3 2 0 0 -1 -0 -3 -1 -4 -4 -1 -2 -2 -1 0
-4 -3 -1 1 -5 -1 -5 -6 -8 -4 -4 0 -3 -1 -6 -1 -1 -0 1 -1 -1 -2 5 -1 0 0 0 1 2 2 3 1 3 3 0 1 2 1 1 -0 -3 1 7 11
-2 -7 -5 -3 -2 -5 -1 0 -3 -8 -3 -6 -2 -9 -6 -4 -3 -2 -2 -3 -2 -3 -5 -3 3 1 3 4 1 2 -1 -0 -0 2 2 1 8 8 9 10 8 3 14 -5
-5 -5 -1 -12 -2 -1 1 -2 -4 -8 -3 -0 -3 -13 -0 -2 -2 -2 -1 2 1 2 2 2 -0 2 3 4 7 6 2 4 5 10 10 5 2 4 2 -4 1 9 1 -10
-4 -4 -2 -15 -15 -6 -1 -0 -1 -2 -3 -2 -6 -12 -1 1 0 2 -2 1 1 1 1 1 1 2 3 4 3 1 2 2 5 4 1 -1 1 0 5 -3 8 4 8 1
-3 -0 -9 -11 -13 -5 0 0 -0 -6 -3 -3 -5 -3 -0 2 -0 3 0 3 2 1 1 -0 2 3 2 1 1 1 -1 -0 2 0 0 0 -1 4 5 1 1 -4 1 -0
-9 -3 -1 -1 -1 1 -3 -3 0 -1 -2 -7 -6 -2 -3 -3 -3 0 -0 2 -0 1 1 0 -0 1 0 0 1 -0 -0 -0 -0 -1 -1 -1 -1 -1 2 -2 -2 -3 -3 -3
-0 -3 -0 0 1 0 0 -0 0 -0 1 -0 -1 -1 -1 3 3 1 2 0 1 1 1 -1 -0 1 1 0 -0 -0 -1 0 2 1 -2 -3 -1 1 2 2 2 -0 -5 -4
-3 -3 -2 -4 -0 0 1 -10 -2 -1 -0 -9 -5 -9 0 4 2 -1 -2 2 -4 -1 -1 -2 0 1 1 -1 -2 -2 -2 -2 -1 -2 -1 -0 -2 -1 -1 -2 -1 2 2 1
-2 -1 -2 -2 -1 -1 -23 -0 -6 -7 -2 1 2 1 -3 -2 3 0 11 -10 -2 -2 -2 -1 0 -1 -1 -1 -0 -1 -0 -1 -1 -2 -2 -1 1 -0 -1 0 -1 -2 -1 -1
-4 -3 -2 -6 -2 -10 -0 1 -9 -9 -3 -3 -3 2 3 1 1 4 2 8 2 -1 -1 -2 -1 1 1 1 1 1 -0 0 1 -1 -1 -1 -1 -1 -1 -1 -2 -2 1 0
-1 -2 -10 0 -3 -4 -14 -1 2 -5 -6 -1 -9 0 -5 0 -1 -4 -2 0 -1 2 0 -2 -1 -1 1 -0 1 2 0 1 -1 -0 -1 -1 -0 -2 -2 -2 -2 -2 -2 -5
-0 -0 -4 0 -1 -8 -4 -1 4 -11 -32 -2 -4 -7 -4 -6 -10 -15 -1 3 8 2 -3 -2 -0 1 1 -0 1 0 0 -0 -1 -0 0 -0 -1 -2 -1 -2 -2 -0 -1 -1
-7 -7 -1 -1 -1 -8 0 3 -14 -17 12 -10 -2 -2 2 3 2 -3 -2 -1 -0 -4 -4 0 -2 0 -0 -0 1 -1 -1 -2 -0 0 -0 -1 -1 -2 -2 -1 -2 -2 -3 -3
-8 -14 -13 -13 -15 -4 1 -6 1 -0 -23 -0 -5 3 1 -2 -2 -3 -6 -1 -2 -4 -4 -2 -2 -2 -0 1 1 -2 -0 -1 -1 -0 -1 -1 -0 -0 -1 0 -0 -1 -2 -1
-3 0 -4 -7 -2 -2 -1 4 2 -5 -9 0 -0 -6 2 -13 -0 -4 0 0 -2 -1 -2 -2 -2 -3 -3 -0 -0 2 -2 -1 0 0 -0 0 1 -1 -0 1 -1 -1 -1 -3
-3 -5 1 -2 -1 4 -0 -3 -5 7 20 10 8 -5 -7 -4 -1 -3 -4 -2 -3 -4 -2 -2 -2 -1 -2 -1 -1 0 -1 0 1 2 1 0 1 -0 -2 -1 -3 -2 -3 -2
1 -1 -3 -6 -2 -3 -3 -0 3 -10 -11 -1 -10 -6 10 -2 -11 -2 0 0 -1 -1 -2 -1 0 -0 -3 -2 -2 -2 -0 -0 0 -1 -2 -1 -0 -0 -0 0 -2 -3 -2 -1
Height
1488 1499 1507 1494 1497 1499 1506 1512 1519 1517 1512 1520 1528 1524 1520 1521 1524 1524 1524 1525 1527 1528 1530 1533 1535 1536 1539 1541 1543 1544 1545 1546 1547 1548 1549 1551 1552 1554 1556 1558 1560 1561 1563 1563
1495 1501 1484 1488 1494 1497 1504 1514 1519 1513 1509 1515 1527 1526 1520 1519 1519 1519 1521 1523 1525 1526 1529 1531 1534 1536 1538 1540 1543 1544 1545 1546 1547 1549 1550 1551 1553 1554 1555 1557 1558 1560 1561 1561
1497 1486 1482 1488 1496 1502 1510 1505 1507 1512 1511 1518 1525 1534 1527 1518 1520 1521 1522 1522 1522 1524 1526 1529 1532 1533 1536 1538 1540 1542 1544 1546 1548 1549 1550 1551 1553 1553 1554 1555 1556 1558 1559 1560
1487 1478 1483 1489 1494 1495 1516 1498 1500 1504 1516 1541 1529 1560 1532 1521 1519 1519 1521 1520 1520 1522 1524 1526 1529 1531 1533 1535 1539 1542 1544 1546 1548 1549 1550 1551 1552 1553 1553 1555 1556 1558 1559 1559
1487 1481 1486 1491 1484 1486 1498 1492 1499 1515 1528 1528 1536 1549 1530 1518 1522 1517 1517 1517 1516 1519 1522 1523 1525 1526 1530 1534 1536 1540 1543 1545 1547 1548 1549 1551 1552 1552 1554 1555 1557 1557 1558 1558
1479 1477 1476 1476 1478 1484 1490 1503 1511 1521 1533 1551 1537 1542 1534 1524 1512 1510 1511 1512 1513 1517 1519 1520 1523 1527 1530 1533 1536 1538 1541 1543 1545 1547 1549 1550 1551 1552 1553 1554 1555 1555 1556 1556
1481 1478 1476 1475 1493 1495 1496 1516 1550 1550 1554 1552 1536 1543 1526 1502 1500 1501 1503 1504 1506 1512 1515 1518 1521 1523 1526 1529 1533 1536 1539 1541 1543 1545 1546 1549 1550 1551 1552 1553 1554 1555 1555 1556
1500 1505 1478 1474 1480 1491 1500 1512 1536 1550 1559 1544 1535 1542 1514 1491 1491 1495 1498 1500 1504 1507 1510 1513 1517 1520 1523 1526 1530 1533 1536 1539 1541 1543 1544 1546 1548 1550 1551 1552 1553 1553 1554 1556
1499 1494 1465 1463 1470 1478 1498 1512 1504 1540 1547 1547 1538 1520 1497 1490 1493 1495 1498 1500 1500 1502 1505 1509 1513 1517 1521 1524 1527 1529 1533 1536 1540 1541 1543 1544 1545 1546 1547 1549 1549 1548 1548 1549
1475 1492 1471 1471 1469 1478 1483 1489 1516 1525 1546 1543 1539 1526 1523 1498 1495 1494 1497 1497 1498 1500 1503 1507 1510 1515 1519 1522 1526 1528 1531 1535 1538 1539 1541 1542 1542 1543 1544 1544 1544 1545 1546 1547
1469 1482 1483 1472 1479 1488 1490 1497 1502 1510 1523 1547 1549 1532 1496 1493 1490 1493 1494 1496 1498 1500 1503 1506 1510 1515 1519 1522 1525 1528 1531 1533 1536 1538 1539 1540 1540 1541 1541 1541 1542 1541 1542 1541
1462 1480 1495 1487 1469 1466 1473 1480 1490 1514 1529 1535 1534 1523 1482 1482 1483 1488 1492 1496 1498 1501 1504 1507 1510 1515 1519 1522 1526 1528 1530 1532 1534 1536 1538 1538 1538 1537 1537 1537 1537 1538 1536 1536
1460 1482 1501 1494 1485 1471 1472 1474 1477 1491 1507 1528 1532 1520 1482 1482 1487 1488 1491 1496 1498 1502 1505 1508 1511 1515 1519 1522 1525 1526 1528 1530 1532 1534 1535 1535 1534 1534 1536 1533 1532 1533 1530 1529
1446 1474 1482 1502 1483 1472 1476 1471 1468 1480 1511 1521 1513 1499 1489 1486 1487 1490 1494 1497 1499 1503 1506 1509 1512 1515 1519 1522 1523 1525 1527 1529 1530 1531 1531 1531 1531 1531 1531 1530 1528 1527 1525 1523
1444 1468 1470 1468 1462 1462 1458 1460 1471 1473 1484 1492 1490 1493 1488 1482 1483 1489 1493 1498 1502 1505 1508 1511 1514 1517 1519 1522 1524 1525 1527 1528 1529 1529 1528 1529 1528 1528 1528 1527 1526 1524 1522 1519
1441 1461 1462 1467 1461 1457 1466 1459 1462 1461 1478 1479 1487 1490 1480 1484 1483 1491 1495 1499 1502 1506 1510 1514 1517 1519 1521 1523 1525 1527 1528 1528 1529 1528 1528 1528 1528 1527 1526 1525 1524 1522 1520 1518
1443 1457 1469 1478 1459 1465 1477 1458 1462 1464 1463 1471 1489 1478 1480 1487 1487 1490 1496 1499 1502 1507 1511 1515 1519 1521 1523 1525 1526 1527 1528 1528 1528 1528 1529 1529 1528 1527 1526 1524 1522 1520 1518 1517
1442 1449 1462 1475 1464 1490 1451 1433 1439 1450 1454 1457 1467 1473 1477 1482 1489 1493 1496 1498 1504 1508 1513 1517 1520 1522 1524 1525 1526 1527 1528 1529 1529 1529 1529 1530 1529 1527 1526 1524 1522 1520 1519 1517
1415 1440 1465 1473 1481 1457 1439 1442 1448 1458 1466 1457 1466 1475 1480 1488 1492 1499 1500 1503 1504 1509 1514 1518 1521 1523 1525 1527 1528 1529 1530 1531 1531 1531 1530 1530 1530 1529 1527 1525 1523 1522 1520 1518
1417 1416 1443 1469 1468 1477 1437 1424 1424 1435 1479 1458 1455 1468 1477 1485 1499 1497 1499 1504 1508 1510 1514 1517 1521 1524 1527 1528 1530 1531 1532 1533 1533 1533 1533 1533 1533 1531 1530 1528 1527 1525 1524 1522
1437 1438 1443 1461 1459 1447 1418 1418 1422 1457 1467 1451 1457 1458 1470 1473 1472 1482 1496 1503 1506 1509 1513 1518 1522 1525 1527 1529 1531 1532 1533 1534 1535 1535 1536 1536 1536 1535 1534 1533 1532 1530 1528 1527
1423 1437 1448 1453 1450 1454 1410 1421 1429 1424 1426 1438 1455 1454 1463 1471 1473 1483 1493 1498 1503 1507 1513 1519 1522 1525 1528 1530 1532 1533 1534 1535 1536 1537 1537 1538 1538 1537 1537 1537 1535 1534 1533 1531
1416 1409 1426 1428 1432 1408 1407 1405 1412 1413 1422 1438 1444 1457 1461 1465 1473 1483 1490 1497 1501 1507 1512 1517 1521 1524 1527 1530 1533 1534 1535 1536 1537 1539 1539 1540 1540 1540 1539 1539 1538 1537 1536 1535
1398 1397 1409 1414 1406 1407 1407 1407 1409 1414 1417 1427 1439 1446 1456 1462 1472 1481 1489 1495 1500 1506 1510 1515 1519 1523 1526 1529 1533 1535 1536 1537 1539 1540 1541 1541 1542 1542 1541 1541 1540 1539 1538 1537
1403 1399 1410 1409 1402 1405 1409 1407 1408 1414 1421 1431 1439 1444 1453 1462 1471 1476 1486 1493 1499 1505 1509 1513 1518 1521 1525 1529 1532 1535 1537 1539 1540 1542 1543 1543 1543 1543 1543 1542 1541 1541 1541 1540
1405 1407 1413 1411 1397 1398 1398 1401 1410 1414 1422 1430 1435 1449 1457 1460 1466 1475 1484 1490 1496 1502 1508 1513 1517 1520 1524 1527 1530 1533 1537 1539 1541 1542 1543 1544 1544 1544 1544 1543 1542 1542 1543 1542